#timestamp,LO_Frequency,Hit,StdDev 
1618446895.3,286047030.4,P
1618446915.1,286047030.7,P
1618446916.0,286047030.7,P
1618446935.8,286047030.1,Y
1618446955.7,286047002.3,P
1618446975.5,286047001.5,N
1618446995.4,286047003.7,N
1618447015.2,286047001.5,N
1618447035.0,286047003.4,N
1618447066.0,286047004.8,E
1618447075.9,286047005.1,N
1618447095.7,286047001.7,P
1618447115.6,286047001.7,N
1618447135.4,286047005.6,Y
1618447155.2,286047000.3,P
1618447175.1,286047002.0,N
1618447176.0,286047002.0,N
1618447195.8,286047004.1,Y
1618447215.7,286047002.0,P
1618447235.5,286047002.1,P
1618447255.3,286047001.6,P
1618447275.2,286047001.3,Y
1618447295.9,286047002.1,P
1618447315.7,286047000.7,P
1618447335.6,286047000.2,N
1618447355.4,286047001.8,N
1618447375.3,286047004.3,Y
1618447395.1,286047001.5,P
1618447396.0,286047001.5,P
1618447415.8,286047001.8,P
1618447435.7,286047001.6,Y
1618447455.5,286047002.8,P
1618447475.3,286047002.6,P
1618447495.2,286047004.1,P
1618447515.0,286047004.0,Y
1618447515.9,286047004.0,P
1618447535.8,286047000.6,N
1618447555.6,286047002.8,N
1618447575.4,286047002.5,N
1618447595.3,286047004.3,Y
1618447615.1,286047000.2,P
1618447635.8,286047003.1,N
1618447655.7,286047007.6,P
1618447675.5,286047005.2,N
1618447695.4,286047007.6,Y
1618447715.2,286047002.6,P
1618447735.0,286047003.4,P
1618447735.9,286047003.4,P
1618447755.8,286047003.4,Y
1618447775.6,286047000.2,P
1618447795.5,286047002.1,N
1618447815.3,286047004.4,P
1618447835.1,286047001.5,N
1618447855.9,286047001.5,N
1618447875.7,286047004.3,Y
1618447895.5,286047004.3,P
1618447915.4,286047002.6,N
1618447935.2,286047002.4,N
1618447955.1,286047001.4,N
1618447956.0,286047001.4,N
1618447975.8,286047004.2,Y
1618447995.6,286047001.6,P
1618448015.5,286047002.2,P
1618448035.3,286047002.0,P
1618448055.1,286046999.9,N
1618448075.9,286046999.7,N
1618448095.7,286047001.6,N
1618448115.6,286047004.8,Y
1618448135.4,286047003.6,P
1618448155.2,286047001.3,N
1618448175.1,286047003.3,P
1618448176.0,286047003.3,Y
1618448195.8,286046999.9,P
1618448215.7,286047002.8,N
1618448235.5,286047002.2,N
1618448255.3,286047001.5,N
1618448275.2,286047004.3,Y
1618448295.0,286047001.1,P
1618448295.9,286047001.1,P
1618448315.7,286046999.9,N
1618448335.6,286047002.1,Y
1618448355.4,286046999.7,P
1618448375.3,286047002.7,P
1618448395.1,286046999.9,N
1618448396.0,286046999.9,N
